Weather History for Terrell, TX

Change the Weather History Date:

Monday, September 16, 2013

  Actual Average (KDFW) Record (KDFW)
Temperature  
Mean Temperature 85 °F 78 °F  
Max Temperature 98 °F 88 °F 102 °F (1900)
Min Temperature 73 °F 67 °F 50 °F (1903)
Degree Days  
Heating Degree Days 0 0  
Month to date heating degree days 0  
Since 1 July heating degree days 0  
Cooling Degree Days 20 13  
Month to date cooling degree days 248  
Year to date cooling degree days 2430  
Growing Degree Days 35 (Base 50)    
Moisture  
Dew Point 61 °F    
Average Humidity 44    
Maximum Humidity 79    
Minimum Humidity 26    
Precipitation  
Precipitation 0.00 in 0.08 in 2.22 in (1970)
Month to date precipitation 1.48  
Year to date precipitation 25.59  
Sea Level Pressure  
Sea Level Pressure 30.03 in    
Wind  
Wind Speed 3 mph (ESE)    
Max Wind Speed 10 mph    
Max Gust Speed -    
Visibility 9 miles    
Events      
T = Trace of Precipitation, MM = Missing Value Source: NWS Daily Summary

Daily Weather History Graph

Daily Weather History Graph

Search for Another Location

Airport:

Trip Planner

Search our weather history database for the weather conditions in past years. The results will help you decide how hot, cold, wet, or windy it might be!

Date:

Astronomy

Sep. 16, 2013 Rise Set
Actual Time 7:09 AM CDT 7:29 PM CDT
Civil Twilight 6:44 AM CDT 7:54 PM CDT
Nautical Twilight 6:16 AM CDT 8:22 PM CDT
Astronomical Twilight 5:46 AM CDT 8:52 PM CDT
Moon 5:33 PM CDT (9/16) 4:05 AM CDT (9/16)
Length of Visible Light 13h 09m
Length of Day
12h 19m
Waxing Gibbous, 90% of the Moon is Illuminated
Sep 16
Waxing Gibbous
Sep 19
Full
Sep 26
Last Quarter
Oct 4
New
Oct 11
First Quarter

Hourly Weather History & Observations

Time (CDT) Temp. Heat Index Dew Point Humidity Pressure Visibility Wind Dir Wind Speed Gust Speed Precip Events Conditions
12:53 AM 79.0 °F - 60.1 °F 52% 30.01 in 10.0 mi NNE 3.5 mph - N/A   Clear
1:53 AM 81.0 °F 81.6 °F 60.1 °F 49% 30.01 in 10.0 mi ESE 3.5 mph - N/A   Scattered Clouds
2:53 AM 77.0 °F - 60.1 °F 56% 30.01 in 10.0 mi Calm Calm - N/A   Clear
3:53 AM 75.9 °F - 61.0 °F 60% 30.01 in 10.0 mi Calm Calm - N/A   Clear
4:53 AM 75.0 °F - 62.1 °F 64% 30.02 in 10.0 mi Calm Calm - N/A   Clear
5:53 AM 73.9 °F - 64.0 °F 71% 30.03 in 10.0 mi Calm Calm - N/A   Clear
6:53 AM 73.9 °F - 64.9 °F 73% 30.04 in 10.0 mi Calm Calm - N/A   Clear
7:53 AM 73.9 °F - 66.9 °F 79% 30.06 in 10.0 mi Calm Calm - N/A   Clear
8:53 AM 81.0 °F 84.9 °F 71.1 °F 72% 30.07 in 10.0 mi South 4.6 mph - N/A   Clear
9:53 AM 84.9 °F 90.1 °F 71.1 °F 63% 30.09 in 10.0 mi SSE 4.6 mph - N/A   Clear
10:53 AM 90.0 °F 91.7 °F 64.9 °F 43% 30.08 in 10.0 mi SSE 4.6 mph - N/A   Clear
11:53 AM 93.0 °F 93.8 °F 62.1 °F 36% 30.08 in 10.0 mi SSE 6.9 mph - N/A   Clear
12:53 PM 93.9 °F 93.6 °F 60.1 °F 32% 30.06 in 1.2 mi South 6.9 mph - N/A   Haze
1:03 PM 95.0 °F 95.2 °F 60.8 °F 32% 30.08 in 0.5 mi Variable 4.6 mph - N/A   Haze
1:09 PM 95.0 °F 95.2 °F 60.8 °F 32% 30.07 in 2.5 mi Variable 3.5 mph - N/A   Haze
1:16 PM 95.0 °F 94.4 °F 59.0 °F 30% 30.07 in 1.0 mi Calm Calm - N/A   Haze
1:44 PM 96.8 °F 96.2 °F 59.0 °F 28% 30.06 in 10.0 mi Variable 5.8 mph - N/A   Mostly Cloudy
1:53 PM 96.1 °F 95.6 °F 59.0 °F 29% 30.03 in 10.0 mi SSE 5.8 mph - N/A   Scattered Clouds
2:53 PM 93.9 °F 92.9 °F 57.9 °F 30% 30.01 in 10.0 mi ESE 6.9 mph - N/A   Clear
3:53 PM 96.1 °F 94.8 °F 57.0 °F 27% 29.98 in 10.0 mi East 5.8 mph - N/A   Clear
4:53 PM 97.0 °F 95.7 °F 57.0 °F 26% 29.96 in 10.0 mi NE 4.6 mph - N/A   Clear
5:53 PM 96.1 °F 95.6 °F 59.0 °F 29% 29.96 in 10.0 mi ESE 10.4 mph - N/A   Clear
6:53 PM 93.0 °F 92.0 °F 57.9 °F 31% 29.96 in 10.0 mi SE 5.8 mph - N/A   Clear
7:53 PM 90.0 °F 89.1 °F 59.0 °F 35% 29.98 in 10.0 mi Calm Calm - N/A   Scattered Clouds
8:53 PM 87.1 °F 86.7 °F 60.1 °F 40% 30.00 in 10.0 mi Calm Calm - N/A   Scattered Clouds
9:53 PM 87.1 °F 86.7 °F 60.1 °F 40% 30.01 in 10.0 mi East 4.6 mph - N/A   Mostly Cloudy
10:53 PM 87.1 °F 87.0 °F 61.0 °F 41% 30.02 in 10.0 mi East 5.8 mph - N/A   Scattered Clouds
11:53 PM 86.0 °F 86.3 °F 62.1 °F 44% 30.02 in 10.0 mi East 4.6 mph - N/A   Partly Cloudy